Regional Weather Roundup
Issued by NWS

Home | Current Version | Previous Version | Graphics & Text | Print | Product List | Glossary On
Versions: 1 2 3 4 5 6 7 8 9 10 11 12 13 14 15 16 17 18 19 20 21 22 23 24 25 26 27 28 29 30 31 32 33 34 35 36 37 38 39 40 41 42 43 44 45 46 47 48 49 50
000
ASUS43 KMPX 242110
RWRMN
WEATHER ROUNDUP FOR MINNESOTA
NATIONAL WEATHER SERVICE TWIN CITIES/CHANHASSEN MN
300 PM CST FRI FEB 24 2017


NOTE: "FAIR" INDICATES FEW OR NO CLOUDS BELOW 12,000 FEET WITH NO
SIGNIFICANT WEATHER AND/OR OBSTRUCTIONS TO VISIBILITY. N/A MEANS
CURRENT SKY AND/OR WEATHER CONDITIONS ARE NOT AVAILABLE.

MNZ060>063-068>070-242200-
   Twin Cities Metro

CITY           SKY/WX    TMP DP  RH WIND       PRES   REMARKS
TWIN CITIES    CLOUDY    27  12  53 N20G29    29.82S WCI  13
ST PAUL        CLOUDY    27  15  61 N16G25    29.83S WCI  15
CRYSTAL        CLOUDY    28  11  48 N20G29    29.82S WCI  15
BLAINE         CLOUDY    28  16  59 N20G28    29.82S WCI  15
LAKEVILLE      CLOUDY    23  18  80 N18G26    29.79S HAZE    WCI   9
EDEN PRAIRIE   CLOUDY    27  13  55 N17G24    29.81R WCI  14
SOUTH ST PAUL  CLOUDY    26  16  64 N17G24    29.80F WCI  13
LAKE ELMO      CLOUDY    27  19  74 N16       29.81S WCI  14
$$
MNZ001>005-007-008-013>017-022>024-027-028-242200-
   Northwest Minnesota

CITY           SKY/WX    TMP DP  RH WIND       PRES   REMARKS
BEMIDJI        SUNNY     21   8  57 N15       29.97S WCI   8
HALLOCK        SUNNY     18  10  73 N15       30.12S WCI   3
ROSEAU         SUNNY     19  10  68 W12       30.05S WCI   7
WARROAD        SUNNY     19   7  58 NW9       30.04S WCI   9
THIEF RVR FALL SUNNY     21  10  62 NW17      30.06F WCI   7
CROOKSTON      MOSUNNY   19  12  73 N23       30.10S WCI   2
FOSSTON        SUNNY     21  12  68 N18       30.02S WCI   6
DETROIT LAKES  MOSUNNY   23  16  74 N12G28    30.00R WCI  12
MOORHEAD       PTSUNNY   23  16  74 N24G31    30.06S WCI   7
PARK RAPIDS    SUNNY     24   5  44 N17G24    29.94S WCI  11
MAHNOMEN       FAIR      22  13  68 N21       30.01S WCI   7
$$
MNZ006-009>011-018-025>026-242200-
   North Central Minnesota

CITY           SKY/WX    TMP DP  RH WIND       PRES   REMARKS
BAUDETTE       SUNNY     16   3  56 NW12      30.01F WCI   3
FLAG ISLAND    SUNNY     18   1  49 N15       30.03S WCI   3
INTL FALLS     CLOUDY    18   4  54 VRB7      29.97F WCI   9
WASKISH        SUNNY     21   7  53 N8G16     29.99F WCI  12
BIG FORK       SUNNY     23   5  46 N8G18     29.93F WCI  14
LONGVILLE      SUNNY     21   9  58 NW8G18    29.93F WCI  12
GRAND RAPIDS   SUNNY     21   8  57 N17       29.92F WCI   7
CRANE LAKE     CLOUDY    18   1  49 N6        29.96F WCI   9
ORR            MOSUNNY   21   1  42 CALM      29.90F
COOK           MOSUNNY   19   3  49 NW9       29.91F WCI   9
WALKER         FAIR      20   6  55 NW14G21   29.95S WCI   7
$$
MNZ012-019>021-037-242200-
   Northeast Minnesota

CITY           SKY/WX    TMP DP  RH WIND       PRES   REMARKS
DULUTH         MOSUNNY   20  10  65 N15       29.84F WCI   6
ELY            CLOUDY    18   0  45 N8        29.88F WCI   7
HIBBING        SUNNY     19   5  54 N12       29.89F WCI   7
EVELETH        SUNNY     20  -2  38 N12G18    29.88F WCI   8
DULUTH HARBOR  MOSUNNY   25  12  58 N12G17    29.91S WCI  14
TWO HARBORS    SUNNY     25  10  54 N6        29.85S WCI  18
SILVER BAY     MOSUNNY   23   7  50 N8        29.85F WCI  14
GRAND MARAIS     N/A     22   3  44 N9        29.91F WCI  12
G MARAIS ARPRT CLOUDY    12  -2  52 NW12      29.82S WCI  -2
$$
MNZ029>031-032-039>041-046>048-054>057-064-242200-
   West Central Minnesota

CITY           SKY/WX    TMP DP  RH WIND       PRES   REMARKS
FERGUS FALLS   PTSUNNY   27  14  59 N20G32    30.03S WCI  13
WHEATON        PTSUNNY   25  16  68 N20G31    30.03S WCI  11
MORRIS         MOSUNNY   28  16  59 N28G36    29.94F WCI  13
ALEXANDRIA     SUNNY     27  11  51 N18G29    29.92S WCI  14
ELBOW LAKE     PTSUNNY   25  14  62 N18G28    29.97S WCI  12
WADENA         SUNNY     23  12  63 N18G25    29.93F WCI   9
GLENWOOD       CLOUDY    27  10  50 N22G32    29.90F WCI  12
APPLETON       PTSUNNY   28  16  59 N24G33    29.95S WCI  14
BENSON         MOSUNNY   30   7  37 NE20G28   29.95S WCI  18
ORTONVILLE     CLOUDY    27  16  63 N29       29.98S WCI  11
MADISON        PTSUNNY   28  16  59 N29G37    29.96S WCI  13
WILLMAR        FAIR      28  14  54 N26       29.90S WCI  13
$$
MNZ033>034-036-042>043-049>051-058-059-242200-
   Central Minnesota

CITY           SKY/WX    TMP DP  RH WIND       PRES   REMARKS
ST CLOUD       MOSUNNY   26  13  57 N20G26    29.86S WCI  12
SAUK CENTRE    FAIR      25   9  51 N17G29    29.90S WCI  11
PAYNESVILLE    MOSUNNY   26  11  52 N16G30    29.88S WCI  14
AITKIN         MOSUNNY   23   9  54 N16G22    29.89F WCI  10
PINE RIVER     SUNNY     21  10  63 N16G23    29.96S WCI   7
BRAINERD       SUNNY     22   9  57 N15       29.91F WCI   9
STAPLES        SUNNY     23   9  54 NW20G25   29.92F WCI   8
LONG PRAIRIE   FAIR      27  10  50 NW20G28   29.90S WCI  13
LITTLE FALLS   MOSUNNY   25   9  50 N14G21    29.90S WCI  13
LITCHFIELD     PTSUNNY   28  12  50 N22G29    29.86S WCI  15
BUFFALO        MOSUNNY   26  11  54 N16G24    29.85S WCI  13
MAPLE LAKE     MOSUNNY   28  16  61 N16G24    29.86F WCI  15
HUTCHINSON     SUNNY     29  15  56 N14G30    29.84F WCI  18
$$
MNZ037-044-045-052-053-242200-
   East Central Minnesota

CITY           SKY/WX    TMP DP  RH WIND       PRES   REMARKS
PRINCETON      CLOUDY    25  12  58 N21       29.85F WCI  10
MORA           CLOUDY    27  14  59 N13G23    29.87S WCI  16
CAMBRIDGE      MOSUNNY   27  14  59 N12G18    29.82F WCI  16
RUSH CITY      CLOUDY    25  14  63 N14G21    29.85S WCI  13
MOOSE LAKE     PTSUNNY   23  12  63 N14G20    29.85S WCI  11
HINCKLEY       MOCLDY    27  14  59 N16       29.85F WCI  14
CLOQUET        MOSUNNY   21  10  63 N16G23    29.86S WCI   7
MCGREGOR       MOSUNNY   21  12  68 N16       29.89F WCI   7
$$
MNZ071>073-080-081-089-090-097-098-242200-
   Southwest Minnesota

CITY           SKY/WX    TMP DP  RH WIND       PRES   REMARKS
MONTEVIDEO     MOSUNNY   28  16  59 NE26G36   29.94F WCI  13
GRANITE FALLS  CLOUDY    30  16  56 NW21G31   29.93S WCI  17
CANBY          CLOUDY    28  16  60 N23G32    29.96R WCI  14
MARSHALL       MOSUNNY   27  14  58 N25G35    29.90  WCI  12
REDWOOD FALLS  CLOUDY    29  10  45 N22G33    29.87F WCI  15
OLIVIA         CLOUDY    30  16  55 N26G32    29.87S WCI  16
PIPESTONE      CLOUDY    27  10  50 N23G29    29.88S WCI  12
WINDOM         MOSUNNY   25  16  68 N23G36    29.82S WCI  10
WORTHINGTON    PTSUNNY   25  17  72 N25       29.83R WCI   9
JACKSON        CLOUDY    23  18  80 N17G24    29.81R HAZE    WCI   9
TRACY          CLOUDY    29  16  59 N24G35    29.88R WCI  14
SLAYTON        PTSUNNY   25  14  64 N31G39    29.85S WCI   8
$$
MNZ065>067-074>077-082>085-091>093-242200-
   South Central Minnesota

CITY           SKY/WX    TMP DP  RH WIND       PRES   REMARKS
MANKATO          N/A     25  16  68 N20       29.80S WCI  11
NEW ULM        CLOUDY    27  12  54 N16G26    29.82F WCI  14
ST JAMES       CLOUDY    25  18  74 NW23G29   29.83S HAZE    WCI  10
FAIRMONT       CLOUDY    25  18  74 N26       29.80R HAZE    WCI   9
GLENCOE        CLOUDY    28  16  62 N20G30    29.83S WCI  14
FARIBAULT      LGT SNOW  25  19  80 N13G21    29.78R WCI  13
OWATONNA       CLOUDY    25  19  80 N18       29.75  WCI  11
WASECA         CLOUDY    25  19  80 N24       29.78R HAZE    WCI   9
ALBERT LEA     LGT SNOW  25  21  86 N18G24    29.72S WCI  11
$$
MNZ078>079-086>088-094>096-242200-
   Southeast Minnesota

CITY           SKY/WX    TMP DP  RH WIND       PRES   REMARKS
ROCHESTER      FOG       24  22  91 N21G29    29.69R VSB 3/4 WCI   9
RED WING       LGT SNOW  27  19  74 N14G20    29.76S VSB 1   WCI  15
STANTON        LGT SNOW  26  20  79 N18       29.77R WCI  12
DODGE CENTER   CLOUDY    23  21  93 N21G28    29.71R WCI   8
WINONA         FLURRIES  30  27  86 N6G20     29.71S WCI  24
AUSTIN           N/A     25  21  86 N10G24    29.70S WCI  15
PRESTON        CLOUDY    25  21  85 N15G22    29.67R WCI  12
$$
ABBREVIATIONS USED IN REMARKS
   TC - TEMPERATURES IN CELSIUS
  WCI - WIND CHILL INDEX
   HX - HEAT INDEX
  VSB - VISIBILITY
$$



USA.gov is the U.S. government's official web portal to all federal, state and local government web resources and services.